Regional Weather Roundup
Issued by NWS

Home | Current Version | Previous Version | Graphics & Text | Print | Product List | Glossary On
Versions: 1 2 3 4 5 6 7 8 9 10 11 12 13 14 15 16 17 18 19 20 21 22 23 24 25 26 27 28 29 30 31 32 33 34 35 36 37 38 39 40 41 42 43 44 45 46 47 48 49 50
000
ASUS43 KDTX 071310
RWRMI
MICHIGAN HOURLY REGIONAL WEATHER ROUNDUP
NATIONAL WEATHER SERVICE DETROIT/PONTIAC MI
ISSUED BY NATIONAL WEATHER SERVICE GRAND RAPIDS MI
800 AM EST WED DEC 07 2016

NOTE: "FAIR" INDICATES FEW OR NO CLOUDS BELOW 12,000 FEET WITH NO
SIGNIFICANT WEATHER AND/OR OBSTRUCTION TO VISIBILITY.

MIZ047>049-052>055-059>063-066>070-074>076-081>083-071400-
SOUTHEAST LOWER MICHIGAN

CITY           SKY/WX    TMP DP  RH WIND       PRES   REMARKS
ADRIAN         MOCLDY    27  22  81 W10G20    30.04R WCI  17
ALMA           CLOUDY    32  23  69 SW16G24   29.93R WCI  21
ANN ARBOR      CLOUDY    30  23  75 SW8       30.00R WCI  22
BAD AXE        CLOUDY    31  22  70 W12       29.90S WCI  22
DETROIT CITY   CLOUDY    32  23  69 SW10      30.00R WCI  24
DETROIT        CLOUDY    32  23  69 SW14      30.01R WCI  22
FLINT          CLOUDY    32  22  66 W17G23    29.95R WCI  21
GROSSE ILE     CLOUDY    31  24  75 SW9       30.01R WCI  23
HILLSDALE      CLOUDY    27  21  80 SW8G17    30.01R WCI  18
HOWELL         CLOUDY    31  22  70 W15G22    29.97R WCI  20

CITY           SKY/WX    TMP DP  RH WIND       PRES   REMARKS
JACKSON        CLOUDY    30  21  69 W9G18     29.99R WCI  22
LANSING        CLOUDY    31  21  66 W17G26    29.98R WCI  19
MASON          CLOUDY    31  23  73 W8G18     29.98R WCI  23
MONROE         MOCLDY    29  25  83 SW13      30.03R WCI  19
MT. CLEMENS    CLOUDY    32  24  72 SW10      29.96R WCI  24
PONTIAC        CLOUDY    31  22  69 W13       29.95R WCI  21
PORT HOPE        N/A     32  22  66 SW9       29.87R WCI  24
PORT HURON     CLOUDY    32  23  69 SW3       29.97R
TRI CITIES     CLOUDY    32  25  75 SW14      29.92R WCI  22
YPSILANTI      CLOUDY    32  24  72 SW12      30.01R WCI  23
$$
MIZ043>046-050>051-056>058-064>065-071>073-077>080-071400-
SOUTHWEST LOWER MICHIGAN

CITY           SKY/WX    TMP DP  RH WIND       PRES   REMARKS
BATTLE CREEK   CLOUDY    30  23  75 SW13      29.99R WCI  20
BENTON HARBOR  CLOUDY    32  22  66 W18       30.03S WCI  20
BIG RAPIDS     CLOUDY    31  20  65 W16G23    29.89R WCI  19
COLDWATER      CLOUDY    27  22  80 SW8       30.02R WCI  19
HOLLAND        CLOUDY    32  24  72 W20G26    29.98R WCI  20
GRAND RAPIDS   CLOUDY    31  22  69 W17G23    29.97R WCI  19
KALAMAZOO      CLOUDY    30  22  72 SW12      30.01R WCI  20
MARSHALL       CLOUDY    30  23  73 W15G21    30.00R WCI  19
MOUNT PLEASANT CLOUDY    31  21  66 SW15G24   29.89S WCI  20
MUSKEGON       CLOUDY    31  23  72 W15G25    29.97R WCI  20
STURGIS        CLOUDY    26  20  77 W10       30.02S WCI  16
$$
MIZ016>042-071400-
NORTHERN LOWER MICHIGAN

CITY           SKY/WX    TMP DP  RH WIND       PRES   REMARKS
ALPENA         CLOUDY    31  19  61 SW12      29.80S WCI  22
BEAVER ISLAND  CLOUDY    29  21  71 SW29G41   29.75R WCI  14
BELLAIRE       CLOUDY    31  22  68 SW9G24    29.81S WCI  23
CADILLAC       CLOUDY    27  20  74 SW14G24   29.82R WCI  16
CHARLEVOIX     CLOUDY    31  23  70 SW22G29   29.80R WCI  19
GAYLORD        CLOUDY    28  18  66 SW20G30   29.76R WCI  15
HOUGHTON LAKE  CLOUDY    29  20  69 SW17G28   29.83R WCI  17
MANISTEE       CLOUDY    29  21  72 SW16G23   29.89R WCI  17
OSCODA         CLOUDY    32  20  63 MISG      29.84S
PELLSTON       CLOUDY    32  21  64 W16G29    29.75R WCI  21
TRAVERSE CITY  FLURRIES  31  20  63 SW15G24   29.82R WCI  20
LUDINGTON      CLOUDY    28  21  74 W16G26    29.92R WCI  17
$$
MIZ007>008-015-071400-
EASTERN UPPER MICHIGAN

CITY           SKY/WX    TMP DP  RH WIND       PRES   REMARKS
MACKINAC ISLAN CLOUDY    32  23  70 SW20G36   29.71S WCI  20
NEWBERRY       CLOUDY    26  17  70 SW14G23   29.70R WCI  14
$$
MIZ004>006-011>014-085-071400-
CENTRAL UPPER MICHIGAN

CITY           SKY/WX    TMP DP  RH WIND       PRES   REMARKS
MANISTIQUE     CLOUDY    26  14  61 W9G16     29.74R WCI  16
SAWYER-GWINN   CLOUDY    21  14  73 SW20G25   29.69  WCI   6
$$
MIZ001>003-009>011-084-071400-
WESTERN UPPER MICHIGAN

CITY           SKY/WX    TMP DP  RH WIND       PRES   REMARKS
COPPER HARBOR    N/A     24  18  77 W13G25    29.61R WCI  12
$$

ABBREVIATIONS USED IN REMARKS
   TC - TEMPERATURE IN CELSIUS
  WCI - WIND CHILL INDEX
   HX - HEAT INDEX
  VSB - VISIBILITY





USA.gov is the U.S. government's official web portal to all federal, state and local government web resources and services.